Погода в Большом Агишеве

Россия / Рязанская область     54°07′14″N   41°44′18″E
темп.,
°C
ветер,
м/с
пор.,
м/с
влажн.,
%
обл.,
%
осадки,
мм/ч
давл.,
гПа
погр.,
м
18 мая, вт
вт1800:00+17вюв4116993 0.0 1012165
03:00+15вюв411665 0.0 1012173
06:00+16вюв4136910 0.0 1011215
09:00+22вюв5135924 0.0 1011477
12:00+26вюв69486 0.0 1011992
15:00+27вюв711495 0.0 1009974
18:00+24вюв613615 0.0 1009443
21:00+21вюв615590 0.0 1009353
19 мая, ср
ср1900:00+19вюв5145955 0.0 1009325
03:00+16юв487282 0.0 1009138
06:00+16юв378016 0.0 1010167
09:00+20юв236657 0.0 1010488
12:00+24юв4754100 0.0 10091027
15:00+26юв51057100 0.0 10081614
18:00+24вюв4106770 0.0 1007342
21:00+20вюв5126799 0.1 1007295
20 мая, чт
чт2000:00+17юв359096 1.7 1007103
03:00+15ююз2494100 3.4 100788
06:00+15ю5109399 0.4 1009677
09:00+15ююв467986 0.5 1009751
12:00+19ююв5864100 0.1 10091721
15:00+18ююв6968100 0.2 10091284
18:00+17ю5878100 0.2 1009782
21:00+14ююв3890100 0.2 1009178
21 мая, пт
пт2100:00+12ю36952 0.0 1009108
03:00+13юз4989100 0.1 1009352
06:00+12ююз5990100 0.0 1010363
09:00+13юз61090100 0.1 1012664
12:00+15юз7107894 0.5 10141264
15:00+16зюз687289 0.6 1015962
18:00+16з367298 0.0 1016740
21:00+13сз1183100 0.0 101810
22 мая, сб
сб2200:00+13вюв2286100 0.2 101829
03:00+12в3794100 0.8 1017190
06:00+13ссв2398100 3.1 1015106
09:00+13ссв569898 4.2 1016207
12:00+16св4590100 0.1 1015374
15:00+16ссв4696100 1.2 1014216
18:00+16с559291 0.0 1015403
21:00+14ссв4794100 0.0 1017360